QTR1015 OKKK-OTHH

Flight info

Callsign QTR1015
Flight time N/A
Altitude 35000
Route BOXIK B416 IMDOX P975 LONOS L703 HAYYA
Aircraft A339/H-SADE1E2E3GHIJ3J5M1P2RWXY/LB2D1

Departure

Time 2026-04-30 21:52
Airport Kuwait International Airport (OKKK)

Arrival

Time N/A
Airport Hamad International Airport (OTHH)
Time Latitude Longitude Altitude Speed Heading
2026-04-30 21:44 29.24566 47.97814 176 ft 3 kts 335°
2026-04-30 21:44 29.24548 47.97824 176 ft 3 kts 335°
2026-04-30 21:44 29.24530 47.97833 176 ft 3 kts 335°
2026-04-30 21:45 29.24511 47.97842 176 ft 3 kts 335°
2026-04-30 21:45 29.24493 47.97852 176 ft 3 kts 335°
2026-04-30 21:45 29.24474 47.97862 176 ft 3 kts 335°
2026-04-30 21:45 29.24456 47.97871 176 ft 3 kts 335°
2026-04-30 21:46 29.24438 47.97881 176 ft 3 kts 335°
2026-04-30 21:46 29.24419 47.97891 176 ft 3 kts 335°
2026-04-30 21:46 29.24401 47.97901 176 ft 3 kts 335°
2026-04-30 21:46 29.24382 47.97911 176 ft 3 kts 335°
2026-04-30 21:47 29.24364 47.97920 176 ft 3 kts 335°
2026-04-30 21:47 29.24346 47.97930 176 ft 3 kts 335°
2026-04-30 21:47 29.24327 47.97940 176 ft 3 kts 335°
2026-04-30 21:47 29.24309 47.97950 176 ft 3 kts 336°
2026-04-30 21:48 29.24290 47.97959 176 ft 3 kts 337°
2026-04-30 21:48 29.24276 47.97965 176 ft 1 kts 337°
2026-04-30 21:48 29.24276 47.97966 176 ft 1 kts 337°
2026-04-30 21:50 29.21311 47.97609 172 ft 0 kts 335°
2026-04-30 21:51 29.21318 47.97605 172 ft 9 kts 335°
2026-04-30 21:51 29.21669 47.97417 169 ft 101 kts 335°
2026-04-30 21:51 29.22548 47.96948 169 ft 174 kts 335°
2026-04-30 21:51 29.23750 47.96303 681 ft 193 kts 335°
2026-04-30 21:52 29.24970 47.95633 1576 ft 196 kts 334°
2026-04-30 21:52 29.26197 47.94986 2519 ft 197 kts 336°
2026-04-30 21:52 29.27490 47.94333 3092 ft 210 kts 337°
2026-04-30 21:52 29.28880 47.93641 3487 ft 230 kts 337°
2026-04-30 21:53 29.30418 47.92839 3846 ft 250 kts 335°
2026-04-30 21:53 29.32004 47.91988 4331 ft 258 kts 335°
2026-04-30 21:53 29.33669 47.91193 4972 ft 262 kts 345°
2026-04-30 21:53 29.35470 47.91119 5698 ft 267 kts
2026-04-30 21:54 29.37187 47.91916 6395 ft 277 kts 31°
2026-04-30 21:54 29.38549 47.93532 6987 ft 287 kts 54°
2026-04-30 21:54 29.39451 47.95597 7593 ft 294 kts 65°
2026-04-30 21:54 29.40228 47.97796 8166 ft 299 kts 65°
2026-04-30 21:55 29.41044 47.99963 8757 ft 301 kts 63°
2026-04-30 21:55 29.41970 48.02142 9324 ft 305 kts 60°
2026-04-30 21:55 29.42864 48.04382 9864 ft 313 kts 72°
2026-04-30 21:55 29.43090 48.06899 10339 ft 326 kts 94°
2026-04-30 21:56 29.42505 48.09475 10529 ft 344 kts 116°
2026-04-30 21:56 29.41097 48.11745 10727 ft 357 kts 138°
2026-04-30 21:56 29.39120 48.13505 11125 ft 363 kts 149°
2026-04-30 21:56 29.37041 48.15187 11688 ft 366 kts 147°
2026-04-30 21:57 29.35045 48.17021 12306 ft 369 kts 143°
2026-04-30 21:57 29.33130 48.19008 12876 ft 373 kts 140°
2026-04-30 21:57 29.31288 48.21069 13450 ft 376 kts 139°
2026-04-30 21:57 29.29431 48.23217 14036 ft 380 kts 139°
2026-04-30 21:58 29.27570 48.25387 14579 ft 384 kts 139°
2026-04-30 21:58 29.25683 48.27577 15133 ft 387 kts 139°
2026-04-30 21:58 29.23778 48.29773 15647 ft 391 kts 139°
2026-04-30 21:58 29.21849 48.31990 16168 ft 394 kts 140°
2026-04-30 21:59 29.19899 48.34222 16691 ft 397 kts 140°
2026-04-30 21:59 29.17937 48.36459 17174 ft 400 kts 140°
2026-04-30 21:59 29.15962 48.38721 17625 ft 404 kts 140°
2026-04-30 22:00 29.11968 48.43309 18603 ft 410 kts 140°
2026-04-30 22:00 29.07916 48.47944 19565 ft 415 kts 140°
2026-04-30 22:00 29.05896 48.50259 20060 ft 417 kts 140°
2026-04-30 22:01 29.03829 48.52623 20509 ft 421 kts 141°
2026-04-30 22:01 29.01754 48.54988 20997 ft 423 kts 141°
2026-04-30 22:01 28.99662 48.57371 21432 ft 427 kts 141°
2026-04-30 22:01 28.97555 48.59769 21929 ft 429 kts 141°
2026-04-30 22:02 28.95435 48.62183 22363 ft 433 kts 141°
2026-04-30 22:02 28.93302 48.64612 22863 ft 434 kts 141°
2026-04-30 22:02 28.91165 48.67044 23289 ft 438 kts 141°
2026-04-30 22:02 28.89003 48.69500 23739 ft 441 kts 141°
2026-04-30 22:03 28.86828 48.71970 24216 ft 443 kts 141°
2026-04-30 22:03 28.84628 48.74462 24629 ft 446 kts 141°
2026-04-30 22:03 28.82413 48.76983 25068 ft 450 kts 141°
2026-04-30 22:03 28.80343 48.79710 25457 ft 460 kts 133°
2026-04-30 22:04 28.78601 48.82765 25880 ft 469 kts 124°
2026-04-30 22:04 28.77045 48.86039 26245 ft 473 kts 123°
2026-04-30 22:04 28.73846 48.92663 27011 ft 479 kts 124°
2026-04-30 22:05 28.72218 48.95984 27362 ft 482 kts 124°
2026-04-30 22:05 28.70573 48.99329 27720 ft 485 kts 125°
2026-04-30 22:05 28.68914 49.02695 28083 ft 488 kts 125°
2026-04-30 22:05 28.67250 49.06067 28401 ft 491 kts 125°
2026-04-30 22:06 28.65570 49.09471 28731 ft 494 kts 125°
2026-04-30 22:06 28.62186 49.16331 29394 ft 499 kts 125°
2026-04-30 22:06 28.60471 49.19791 29685 ft 502 kts 126°
2026-04-30 22:07 28.58473 49.23002 29984 ft 494 kts 138°
2026-04-30 22:07 28.56071 49.25672 30276 ft 485 kts 149°
2026-04-30 22:07 28.53301 49.27768 30624 ft 474 kts 160°
2026-04-30 22:07 28.50410 49.29617 30908 ft 482 kts 155°
2026-04-30 22:08 28.47654 49.31846 31273 ft 490 kts 150°
2026-04-30 22:08 28.44999 49.34318 31621 ft 495 kts 148°
2026-04-30 22:08 28.42395 49.36894 31909 ft 499 kts 147°
2026-04-30 22:08 28.39786 49.39519 32231 ft 501 kts 147°
2026-04-30 22:09 28.37175 49.42143 32493 ft 502 kts 147°
2026-04-30 22:09 28.34550 49.44765 32749 ft 503 kts 148°
2026-04-30 22:09 28.31910 49.47389 32900 ft 505 kts 148°
2026-04-30 22:09 28.29259 49.50015 33123 ft 505 kts 148°
2026-04-30 22:10 28.26609 49.52626 33240 ft 506 kts 148°
2026-04-30 22:10 28.23940 49.55253 33349 ft 508 kts 148°
2026-04-30 22:10 28.21252 49.57853 33529 ft 503 kts 151°
2026-04-30 22:10 28.18476 49.60249 33662 ft 501 kts 153°
2026-04-30 22:11 28.12919 49.65011 34016 ft 499 kts 153°
2026-04-30 22:11 28.10192 49.67353 34170 ft 499 kts 153°
2026-04-30 22:11 28.07421 49.69730 34313 ft 499 kts 153°
2026-04-30 22:12 28.04649 49.72108 34443 ft 499 kts 153°
2026-04-30 22:12 28.01851 49.74410 34582 ft 495 kts 155°
2026-04-30 22:12 27.99012 49.76593 34701 ft 493 kts 156°
2026-04-30 22:12 27.96159 49.78757 34843 ft 493 kts 156°
2026-04-30 22:13 27.93317 49.80927 34931 ft 493 kts 156°
2026-04-30 22:13 27.87656 49.85296 34906 ft 492 kts 155°
2026-04-30 22:14 27.82034 49.89655 34906 ft 493 kts 155°